Pittsfield, MA

6:19 AM EDT on May 28, 2018 (GMT -0400)
Pittsfield Municipal

Weather History for KPSF - February, 2013

Change the Weather History Date:

Monday, February 25, 2013

  Actual Average Record
Temperature  
Mean Temperature 31 °F 26 °F  
Max Temperature 37 °F 35 °F 65 °F (2017)
Min Temperature 25 °F 17 °F -4 °F (1934)
Degree Days  
Heating Degree Days 34 39  
Month to date heating degree days 1028 1041  
Since 1 July heating degree days 4844 5266  
Cooling Degree Days 0 0  
Month to date cooling degree days 0 0  
Year to date cooling degree days 0 0  
Moisture  
Dew Point 24 °F    
Average Humidity 71    
Maximum Humidity 85    
Minimum Humidity 56    
Precipitation  
Precipitation 0.00 in 0.09 in 0.96 in (2017)
Month to date precipitation 0.91 2.39  
Year to date precipitation 3.18 5.31  
Sea Level Pressure  
Sea Level Pressure 30.09 in    
Wind  
Wind Speed 4 mph (WNW)    
Max Wind Speed 16 mph    
Max Gust Speed 22 mph    
Visibility 10 miles    
Events      
T = Trace of Precipitation, MM = Missing Value Source: NWS Daily Summary

Daily Weather History Graph

Daily Weather History Graph

Search for Another Location

Airport or City:

Astronomy

Feb. 25, 2013 Rise Set
Actual Time 6:34 AM EST 5:38 PM EST
Civil Twilight 6:06 AM EST 6:06 PM EST
Nautical Twilight 5:33 AM EST 6:39 PM EST
Astronomical Twilight 5:01 AM EST 7:11 PM EST
Moon 5:50 PM EST (2/25) 6:02 AM EST (2/25)
Length of Visible Light 12h 00m
Length of Day
11h 03m
Full, 100% of the Moon is Illuminated
Feb 25
Full
Feb 25
Full
Mar 4
Last Quarter
Mar 11
New
Mar 19
First Quarter

Hourly Weather History & Observations

Time (EST) Temp. Windchill Dew Point Humidity Pressure Visibility Wind Dir Wind Speed Gust Speed Precip Events Conditions
1:54 AM 28.0 °F 20.8 °F 23.0 °F 81% 29.96 in 10.0 mi NNW 6.9 mph - N/A   Overcast
2:54 AM 27.0 °F 19.5 °F 23.0 °F 85% 29.98 in 10.0 mi WNW 6.9 mph - N/A   Overcast
3:54 AM 27.0 °F 21.6 °F 23.0 °F 85% 29.99 in 10.0 mi West 4.6 mph - N/A   Overcast
4:05 AM 26.6 °F 21.2 °F 23.0 °F 86% 29.95 in 10.0 mi WNW 4.6 mph - N/A   Overcast
4:17 AM 26.6 °F 21.2 °F 21.2 °F 80% 29.95 in 10.0 mi WNW 4.6 mph - N/A   Mostly Cloudy
4:54 AM 26.1 °F 21.9 °F 21.9 °F 84% 30.01 in 10.0 mi WNW 3.5 mph - N/A   Clear
5:32 AM 24.8 °F - 21.2 °F 86% 29.98 in 10.0 mi Calm Calm - N/A   Mostly Cloudy
5:54 AM 26.1 °F 21.9 °F 23.0 °F 88% 30.04 in 10.0 mi West 3.5 mph - N/A   Overcast
7:21 AM 26.6 °F 21.2 °F 21.2 °F 80% 30.02 in 10.0 mi West 4.6 mph - N/A   Scattered Clouds
7:54 AM 27.0 °F 21.6 °F 21.9 °F 81% 30.06 in 10.0 mi West 4.6 mph - N/A   Clear
8:54 AM 30.0 °F 21.1 °F 23.0 °F 75% 30.08 in 10.0 mi WNW 10.4 mph - N/A   Clear
9:54 AM 32.0 °F 27.5 °F 24.1 °F 73% 30.08 in 10.0 mi West 4.6 mph - N/A   Partly Cloudy
10:22 AM 33.8 °F 28.6 °F 24.8 °F 70% 30.06 in 10.0 mi NNW 5.8 mph - N/A   Mostly Cloudy
10:54 AM 34.0 °F 28.8 °F 25.0 °F 70% 30.09 in 10.0 mi WNW 5.8 mph - N/A   Overcast
11:54 AM 35.1 °F 30.1 °F 24.1 °F 64% 30.09 in 10.0 mi North 5.8 mph - N/A   Overcast
1:54 PM 34.0 °F 27.2 °F 25.0 °F 70% 30.13 in 10.0 mi WNW 8.1 mph - N/A   Overcast
2:54 PM 35.1 °F 30.1 °F 24.1 °F 64% 30.14 in 10.0 mi NW 5.8 mph - N/A   Overcast
3:54 PM 35.1 °F 32.2 °F 23.0 °F 61% 30.14 in 10.0 mi NW 3.5 mph - N/A   Overcast
4:54 PM 36.0 °F - 21.9 °F 57% 30.14 in 10.0 mi Calm Calm - N/A   Overcast
5:54 PM 34.0 °F - 24.1 °F 67% 30.16 in 10.0 mi Calm Calm - N/A   Overcast
6:54 PM 33.1 °F - 25.0 °F 72% 30.19 in 10.0 mi Calm Calm - N/A   Overcast
7:54 PM 32.0 °F - 24.1 °F 73% 30.19 in 10.0 mi Calm Calm - N/A   Overcast
8:54 PM 32.0 °F - 24.1 °F 73% 30.19 in 10.0 mi Calm Calm - N/A   Overcast
9:54 PM 28.9 °F - 25.0 °F 85% 30.19 in 10.0 mi Calm Calm - N/A   Overcast
10:08 PM 28.4 °F - 26.6 °F 93% 30.16 in 10.0 mi Calm Calm - N/A   Overcast
10:54 PM 30.0 °F - 25.0 °F 82% 30.21 in 10.0 mi Calm Calm - N/A   Overcast
11:54 PM 28.9 °F - 25.0 °F 85% 30.22 in 10.0 mi Calm Calm - N/A   Overcast